星链-1115 (STARLINK-1115 )

导读 | 星芒AI

STARLINK-1115 是 SpaceX Starlink 卫星互联网项目中的一颗低轨卫星,属于第十五批部署的星链卫星。该卫星于2023年发射,运行在约550公里高度的近地轨道,旨在为全球用户提供高速、低延迟的互联网服务。作为星链星座的一部分,STARLINK-1115 采用先进推进系统和激光通信技术,提升网络稳定性和数据传输效率,助力实现 SpaceX 构建全球宽带网络的目标。

基本信息
目录编号:
44973
目录名称:
STARLINK-1115
国际标识:
2020-001BM
轨道中心:
EARTH
卫星名称:
星链-1115
卫星全名:
星链-1115 (STARLINK-1115 )
卫星状态:
已陨落 最后检测时间 2025-09-11
发射日期:
2020-01-07 UTC
国别 :
美国 (US)
星等 :
--
轨道信息
数据来源 国际轨道数据
星历时间: 2025-09-10T21:48:38+0800
轨道信息已过期48天
半长轴: 6533.636km
偏心率: 0.0004897
轨道倾角: 53.010°
近地点辐角 235.017°
升交点赤经 278.333°
平近点角 125.042°
近地点: 152.301km
远地点: 158.701km
周期: 87.598分钟
每日圈数: 16.438813
详细信息
固有亮度:
5
最大亮度:
2.5
卫星平台:
Starlink V1.0
覆盖范围:
全球
运营商:
太空探索技术公司
运营商所在国:
美国
制造商(研发单位):
太空探索技术公司
制造商所在国:
美国
使用方式:
暂无
卫星简介
星链(Starlink)计划是由太空探索技术公司(SpaceX)提出的一个巨型低轨卫星互联网星座项目,计划在2019年至2024年间在太空搭建由约1.2万颗卫星组成的“星链”网络,其中1584颗将部署在地球上空550千米处的近地轨道,并从2020年开始工作。该卫星仍在工作。